This is the latest recevied weather packets stored in our database for station/object KG5APU. If no packets are shown the sender has not sent any weather packets the latest 10 day(s).
| Time | Temp. | Humidity | Pressure | Rain* | Wind** | Luminosity | Snow |
|---|---|---|---|---|---|---|---|
| 1788162460 | 28.89° C | 64% | 1015 hPa | 0 mm | - | 0 W/m² | - |
| 1788161856 | 28.89° C | 63% | 1015.2 hPa | 0 mm | - | 0 W/m² | - |
| 1788161256 | 28.89° C | 63% | 1015.2 hPa | 0 mm | - | 0 W/m² | - |
| 1788160652 | 28.89° C | 63% | 1014.9 hPa | 0 mm | - | 0 W/m² | - |
| 1788160053 | 28.89° C | 62% | 1014.9 hPa | 0 mm | - | 0 W/m² | - |
| 1788159451 | 28.89° C | 62% | 1014.9 hPa | 0 mm | - | 0 W/m² | - |
| 1788158851 | 28.89° C | 63% | 1015.2 hPa | 0 mm | - | 0 W/m² | - |
| 1788158247 | 28.89° C | 63% | 1015.2 hPa | 0 mm | - | 0 W/m² | - |
| 1788157648 | 28.89° C | 63% | 1015.1 hPa | 0 mm | - | 0 W/m² | - |
| 1788157047 | 28.33° C | 65% | 1015 hPa | 0 mm | - | 0 W/m² | - |
| 1788156445 | 27.78° C | 68% | 1015 hPa | 0 mm | - | 0 W/m² | - |
| 1788155844 | 27.78° C | 70% | 1015.1 hPa | 0 mm | - | 0 W/m² | - |
| 1788155245 | 27.78° C | 71% | 1015 hPa | 0 mm | - | 0 W/m² | - |
| 1788154645 | 27.22° C | 73% | 1015.3 hPa | 0 mm | - | 0 W/m² | - |
| 1788154044 | 26.67° C | 71% | 1015.4 hPa | 0 mm | - | 0 W/m² | - |
| 1788153441 | 26.67° C | 69% | 1015.1 hPa | 0 mm | - | 0 W/m² | - |
| 1788152841 | 26.67° C | 67% | 1015 hPa | 0 mm | - | 0 W/m² | - |
| 1788152241 | 27.22° C | 67% | 1015 hPa | 0 mm | - | 0 W/m² | - |
| 1788151636 | 27.22° C | 68% | 1014.9 hPa | 0 mm | - | 0 W/m² | - |
| 1788151032 | 27.22° C | 66% | 1015 hPa | 0 mm | - | 0 W/m² | - |
| 1788150433 | 27.78° C | 64% | 1014.9 hPa | 0 mm | - | 0 W/m² | - |
| 1788149829 | 28.33° C | 60% | 1014.7 hPa | 0 mm | - | 0 W/m² | - |
| 1788149223 | 27.78° C | 60% | 1015 hPa | 0 mm | - | 0 W/m² | - |
| 1788148621 | 28.33° C | 59% | 1015.2 hPa | 0 mm | - | 0 W/m² | - |
| 1788148020 | 28.33° C | 59% | 1014.7 hPa | 0 mm | - | 0 W/m² | - |
* Rain latest hour (hover to see other rain measurements)
** Current wind speed in m/s (hover to see current wind gust speed)